#timestamp,LO_Frequency,Hit,StdDev 
1716040815.1,286046999.2,N
1716040835.9,286046996.7,Y
1716040855.7,286046996.5,P
1716040875.5,286046997.0,N
1716040895.4,286046996.8,N
1716040915.2,286046997.4,N
1716040935.1,286046997.6,N
1716040936.0,286046997.6,N
1716040955.8,286046998.0,N
1716040975.6,286046996.1,Y
1716040995.5,286046996.5,P
1716041015.3,286046996.7,P
1716041035.1,286046997.5,P
1716041055.9,286046997.8,Y
1716041075.7,286046999.0,P
1716041095.6,286046998.3,N
1716041115.4,286046999.4,N
1716041135.2,286046997.0,Y
1716041155.1,286046999.1,P
1716041156.0,286046999.1,N
1716041175.8,286046998.9,P
1716041195.7,286046999.1,Y
1716041215.5,286046998.8,P
1716041235.3,286046999.2,P
1716041255.2,286046999.2,P
1716041275.0,286046997.0,Y
1716041275.9,286046997.0,P
1716041295.7,286046996.5,P
1716041315.6,286046997.0,N
1716041335.4,286046994.9,Y
1716041355.3,286046998.4,P
1716041375.1,286046999.0,N
1716041395.8,286046996.7,P
1716041415.7,286046994.9,Y
1716041435.5,286046999.2,P
1716041455.4,286046996.6,P
1716041475.2,286046997.3,N
1716041495.0,286046997.4,N
1716041495.9,286046997.4,Y
1716041515.8,286047001.1,P
1716041535.6,286046999.3,N
1716041555.4,286046999.4,N
1716041575.3,286046997.3,N
1716041595.1,286046997.6,N
1716041615.9,286046997.4,N
1716041635.7,286046997.7,N
1716041655.5,286046995.2,Y
1716041675.4,286046998.0,P
1716041695.2,286046995.4,P
1716041715.1,286046995.6,P
1716041716.0,286046995.6,Y
1716041735.8,286046999.5,P
1716041755.6,286046997.2,N
1716041775.5,286046997.2,N
1716041795.3,286046997.8,N
1716041815.2,286046997.7,N
1716041835.9,286046998.0,N
1716041855.7,286046994.9,Y
1716041875.6,286046996.6,P
1716041895.4,286046996.7,P
1716041915.2,286046997.3,P
1716041935.1,286046997.8,Y
1716041936.0,286046997.8,P
1716041955.8,286046998.6,P
1716041975.7,286046998.9,N
1716041995.5,286046998.7,N
1716042015.3,286046998.3,N
1716042035.2,286046999.5,N
1716042055.0,286046999.1,N
1716042055.9,286046999.1,N
1716042075.8,286046996.5,Y
1716042095.6,286046998.8,P
1716042115.4,286046998.1,P
1716042135.3,286046998.3,P
1716042155.1,286046999.2,Y
1716042175.8,286047000.4,P
1716042195.7,286046999.0,N
1716042215.5,286046998.6,N
1716042235.4,286046999.1,N
1716042255.2,286046999.4,N
1716042275.0,286046997.0,Y
1716042275.9,286046997.0,P
1716042295.8,286046999.6,N
1716042315.6,286046999.3,N
1716042335.4,286046997.1,N
1716042355.3,286046994.9,Y
1716042375.1,286046996.5,P
1716042395.9,286046996.6,P
1716042415.7,286046996.7,P
1716042435.5,286046996.8,Y
1716042455.4,286047000.4,P
1716042475.2,286047000.9,N
1716042495.0,286046999.0,N
1716042495.9,286046999.0,N
1716042515.8,286046998.7,N
1716042535.6,286046998.9,N
1716042555.5,286046999.3,N
1716042575.3,286046999.1,N
1716042595.1,286046996.5,Y
1716042615.9,286046999.2,P
1716042635.7,286046998.4,P
1716042655.5,286046999.3,N
1716042675.4,286046996.7,Y
1716042695.2,286046999.5,P
1716042715.1,286046996.5,P
1716042716.0,286046996.5,N
1716042735.8,286046996.5,N
1716042755.6,286046996.9,N
1716042775.5,286046997.0,N
1716042795.3,286046997.0,N
1716042815.1,286046999.5,N
1716042835.9,286046997.2,N
1716042855.7,286046997.8,N
1716042875.6,286046997.7,N
1716042895.4,286046994.9,Y
1716042915.2,286046998.6,P
1716042935.1,286046998.3,P
1716042936.0,286046998.3,P
1716042955.8,286046999.1,N
1716042975.7,286046999.4,N
1716042995.5,286046999.6,N
1716043015.3,286046996.7,Y
1716043035.2,286046999.0,P
1716043055.0,286046999.3,P
1716043055.9,286046999.3,N
1716043075.7,286046999.3,N
1716043095.6,286046998.4,Y
1716043115.4,286046998.4,P
1716043135.3,286046998.3,P
1716043155.1,286046998.5,P
1716043156.0,286046998.5,Y
1716043175.8,286046998.1,P
1716043195.7,286047000.7,N
1716043215.5,286047000.2,N
1716043235.3,286047000.6,N
1716043255.2,286047001.2,N
1716043275.0,286047000.7,N
1716043275.9,286047000.7,N
1716043295.8,286047000.9,N
1716043315.6,286047000.8,N
1716043335.4,286047000.6,N
1716043355.3,286047000.1,N
1716043375.1,286047002.7,N
1716043395.9,286047002.1,N
1716043415.7,286047001.9,N
1716043435.5,286047002.3,N
1716043455.4,286047001.7,N
1716043475.2,286047001.7,N
1716043495.0,286047001.8,N
1716043495.9,286047001.8,N
1716043515.8,286047002.4,N
1716043535.6,286047002.8,N
1716043555.5,286047000.2,N
1716043575.3,286046999.7,N
1716043595.1,286047001.9,N
1716043615.9,286047002.0,N
1716043635.7,286047002.5,N
1716043655.5,286047002.0,N
1716043675.4,286047002.2,N
1716043695.2,286046999.8,N
1716043715.1,286047000.1,N
1716043716.0,286047000.1,N
1716043735.8,286047002.3,N
1716043755.6,286047002.0,N
1716043775.5,286047002.2,N
1716043795.3,286047001.6,N
1716043815.2,286047002.5,N
1716043835.9,286047002.5,N
1716043855.7,286047002.3,N
1716043875.6,286047000.1,N
1716043895.4,286046999.7,N
1716043915.2,286047002.3,N
1716043935.1,286046999.8,N
1716043936.0,286046999.8,N
1716043955.8,286046999.8,N
1716043975.7,286046999.8,N
1716043995.5,286047002.7,N
1716044015.3,286047000.4,N
1716044035.2,286047000.1,N
1716044055.9,286047002.4,N
1716044075.7,286047002.8,N
1716044095.6,286047002.5,N
1716044115.4,286047002.8,N
1716044135.2,286046999.9,N
1716044155.1,286047000.3,N
1716044156.0,286047000.3,N
1716044175.8,286046999.8,N
1716044195.7,286047002.8,N
1716044215.5,286046999.9,N
1716044235.3,286047000.6,N
1716044255.2,286047000.3,N
1716044275.0,286047000.8,N
1716044275.9,286047000.8,N
1716044295.8,286047000.9,N
1716044315.6,286047000.7,N
1716044335.4,286047000.5,N
1716044355.3,286047000.8,N
1716044375.1,286047000.2,N
1716044395.8,286047000.4,N
